{"data":{"norad_id":62261,"epoch":"2026-09-22T23:37:02.587008Z","epoch_age_seconds":95595,"freshness":"FRESH","line1":"1 62261U 24235A   26265.98405772  .00000089  00000+0  28586-4 0  9995","line2":"2 62261  98.1823 271.9056 0001362  89.9448 270.1908 14.59197784 95673","mean_motion":14.59197784,"eccentricity":0.0001362,"inclination_deg":98.1823,"raan_deg":271.9056,"arg_perigee_deg":89.9448,"mean_anomaly_deg":270.1908,"bstar":2.8586e-5,"rev_number":9567,"period_min":98.684360392367,"perigee_km":694.8019923092,"apogee_km":696.72892333871,"semimajor_km":7073.902457824,"source":"CELESTRAK","updated_at":"2026-09-23T09:00:21.338895Z"}}